EW8930 Weather Reports


Display with metric or nautical units.
time (UTC)temp
F
wind
direction
speed
MPH
gust
MPH
rain 1hr
in
rain 24hr
in
rain mn
in
humidity
%
barometer
mb
20260506164553 56 319 11.0 16.0 0.00 0.95 0.23 59 1012.6
20260506163056 55 303 11.0 16.0 0.00 0.95 0.23 55 1012.6
20260506161550 55 312 10.0 15.0 0.00 0.95 0.23 61 1012.5
20260506160047 54 302 4.0 15.0 0.00 0.95 0.23 53 1012.6
20260506154605 54 31 6.0 16.0 0.00 0.95 0.23 58 1012.2
20260506153043 54 308 6.0 14.0 0.00 0.95 0.23 63 1012.1
20260506151541 53 335 6.0 14.0 0.00 0.95 0.23 64 1012.2
20260506150038 53 298 10.0 13.0 0.00 0.95 0.23 65 1011.9
20260506144542 53 325 8.0 13.0 0.00 0.95 0.23 64 1011.7
20260506143034 52 334 8.0 12.0 0.00 0.95 0.23 72 1011.5
20260506141530 51 311 7.0 11.0 0.00 0.95 0.23 71 1011.5
20260506140033 50 315 7.0 11.0 0.00 0.95 0.23 76 1011.6
20260506134525 50 317 6.0 12.0 0.00 0.95 0.23 77 1011.5
20260506133025 49 307 10.0 12.0 0.00 0.95 0.23 78 1011.2
20260506131522 48 300 7.0 11.0 0.00 0.95 0.23 79 1011.1
20260506130018 47 323 6.0 11.0 0.00 0.95 0.23 78 1010.8
20260506124515 47 296 7.0 10.0 0.00 0.95 0.23 75 1010.7
20260506123012 46 294 7.0 10.0 0.00 0.95 0.23 68 1010.5
20260506121509 45 291 8.0 11.0 0.00 0.95 0.23 46 1010.2
20260506120007 44 289 6.0 9.0 0.00 0.95 0.23 39 1010.1
20260506114506 44 284 5.0 8.0 0.00 0.95 0.23 40 1009.8
20260506113003 44 281 4.0 7.0 0.00 0.95 0.23 40 1009.9
20260506111502 44 284 3.0 5.0 0.00 0.95 0.23 41 1009.9
20260506110059 44 273 4.0 8.0 0.00 0.95 0.23 41 1009.9
20260506104627 44 287 2.0 7.0 0.00 0.95 0.23 41 1008.9
20260506103055 44 296 4.0 8.0 0.00 0.95 0.23 41 1008.9
20260506101554 44 298 4.0 7.0 0.00 0.95 0.23 41 1008.8
20260506100053 44 263 2.0 4.0 0.00 0.95 0.23 41 1008.8
20260506094553 44 226 0.0 2.0 0.01 0.95 0.23 41 1008.3
20260506093052 44 226 1.0 3.0 0.01 0.95 0.23 41 1008.7
20260506091555 44 264 2.0 3.0 0.02 0.95 0.23 41 1009.0
20260506090051 44 252 2.0 3.0 0.02 0.95 0.23 41 1008.9
20260506084552 44 244 0.0 2.0 0.02 0.94 0.22 41 1008.7
20260506083050 44 274 2.0 3.0 0.03 0.94 0.22 41 1009.2
20260506081557 44 313 1.0 2.0 0.03 0.93 0.21 41 1008.7
20260506073049 44 313 0.0 0.0 0.03 0.91 0.19 40 1008.7
20260506071545 44 313 1.0 3.0 0.03 0.90 0.18 40 1009.1
20260506061540 45 329 4.0 8.0 0.07 0.87 0.15 40 1009.0
20260506044532 47 300 1.0 3.0 0.05 0.77 0.05 47 1008.6
20260506043026 47 277 2.0 3.0 0.05 0.76 0.04 50 1008.7
20260506041522 48 256 1.0 3.0 0.02 0.73 0.01 51 1008.6
20260506040028 48 252 1.0 2.0 0.03 0.72 0.00 51 1008.6
20260506034519 48 238 1.0 3.0 0.05 0.72 0.72 53 1008.5
20260506033021 48 252 1.0 2.0 0.06 0.71 0.71 50 1008.6
20260506031516 48 268 0.0 8.0 0.08 0.71 0.71 45 1008.6
20260506030020 48 226 0.0 4.0 0.09 0.69 0.69 45 1008.9
20260506024526 48 191 1.0 3.0 0.09 0.67 0.67 46 1009.1
20260506023014 48 261 0.0 2.0 0.09 0.65 0.65 48 1009.0
20260506021523 48 250 2.0 3.0 0.08 0.62 0.62 50 1008.9
20260506020012 48 233 2.0 4.0 0.07 0.60 0.60 50 1008.8
20260506014521 48 240 1.0 3.0 0.06 0.57 0.57 51 1008.6
20260506013009 48 247 1.0 3.0 0.06 0.56 0.56 51 1008.5
20260506011517 48 258 2.0 4.0 0.05 0.54 0.54 51 1008.3
20260506010011 48 277 1.0 3.0 0.06 0.53 0.53 53 1008.1
20260506004508 48 245 1.0 2.0 0.08 0.52 0.52 53 1008.1
20260506003004 48 245 0.0 3.0 0.08 0.50 0.50 56 1008.1
20260506001503 48 242 1.0 5.0 0.07 0.49 0.49 60 1008.1
20260506000002 49 240 2.0 4.0 0.05 0.46 0.46 61 1008.1
20260505234613 49 271 2.0 5.0 0.03 0.44 0.44 67 1008.1
20260505233059 49 298 1.0 2.0 0.01 0.42 0.42 63 1007.9
20260505231558 49 298 1.0 2.0 0.02 0.42 0.42 61 1007.9
20260505230057 49 348 1.0 3.0 0.03 0.41 0.41 55 1007.8
20260505224557 49 348 2.0 6.0 0.06 0.41 0.41 55 1007.7
20260505223106 49 324 5.0 8.0 0.11 0.41 0.41 61 1007.9
20260505221554 49 312 4.0 7.0 0.14 0.40 0.40 60 1007.9
20260505220051 50 309 3.0 7.0 0.15 0.38 0.38 48 1007.8
20260505214557 50 320 6.0 8.0 0.14 0.35 0.35 46 1007.5
20260505213052 50 315 6.0 10.0 0.11 0.30 0.30 50 1007.5
20260505211556 51 327 5.0 9.0 0.08 0.26 0.26 44 1007.5
20260505210046 51 314 8.0 9.0 0.06 0.23 0.23 39 1007.3
20260505204545 51 319 4.0 8.0 0.05 0.21 0.21 40 1007.1
20260505203100 51 300 5.0 9.0 0.03 0.19 0.19 40 1007.2
20260505201545 51 296 5.0 9.0 0.04 0.18 0.18 40 1007.4
20260505200042 51 287 4.0 9.0 0.05 0.17 0.17 40 1007.4
20260505194544 51 275 6.0 9.0 0.06 0.16 0.16 41 1007.9
20260505193041 51 282 5.0 11.0 0.08 0.16 0.16 42 1007.9
20260505191544 51 284 10.0 13.0 0.08 0.14 0.14 43 1008.2
20260505190041 53 282 9.0 11.0 0.07 0.12 0.12 42 1007.6
20260505184543 53 266 7.0 10.0 0.07 0.10 0.10 43 1007.5
20260505183036 54 269 4.0 8.0 0.07 0.08 0.08 41 1007.4
20260505181524 55 262 4.0 6.0 0.06 0.06 0.06 43 1007.1
20260505180022 55 234 3.0 7.0 0.05 0.05 0.05 45 1007.0
20260505174520 55 244 4.0 8.0 0.03 0.03 0.03 48 1006.9
20260505173017 56 275 5.0 8.0 0.01 0.01 0.01 54 1006.8
20260505171512 57 279 6.0 9.0 0.00 0.00 0.00 71 1006.9
20260505170012 59 271 8.0 14.0 0.00 0.00 0.00 78 1007.1